星链-11462 (STARLINK-11462)

导读

STARLINK-11462是美国于2024年12月23日发射的星链系列卫星,隶属于SpaceX公司打造的星链星座系统。星链旨在构建全球覆盖的卫星互联网,为偏远地区、海洋等场景提供高速网络服务。该卫星加入后进一步扩充了星链星座规模,推动全球卫星通信网络的覆盖能力提升,助力SpaceX完成低轨互联网星座组网目标。

Basic Information
目录编号:
62412
目录名称:
STARLINK-11462
国际标识:
2024-249D
轨道中心:
EARTH
卫星名称:
星链-11462
卫星全名:
星链-11462 (STARLINK-11462)
卫星状态:
已陨落 最后检测时间 2026-05-29
发射日期:
2024-12-23 UTC
国别 :
美国 (US)
星等 :
--
Orbit Information
数据来源 国际轨道数据
星历时间: 2026-05-29T11:12:56+0800
轨道信息已过期16天
半长轴: 6581.555km
偏心率: 0.0019292
轨道倾角: 42.984°
近地点辐角 257.462°
升交点赤经 32.692°
平近点角 102.411°
近地点: 190.72km
远地点: 216.116km
周期: 88.563分钟
每日圈数: 16.259605
Detailed Information
固有亮度:
5
最大亮度:
2.5
卫星平台:
Starlink V1.0
覆盖范围:
全球
运营商:
太空探索技术公司
运营商所在国:
美国
制造商(研发单位):
太空探索技术公司
制造商所在国:
美国
使用方式:
暂无
Satellite Introduction
Starlink 计划是 SpaceX 推出的全球卫星互联网项目,通过发射低轨道卫星,为全球尤其是偏远地区提供高速、低延迟的互联网服务。自 2019 年起,Starlink 已部署数千颗卫星,旨在缩小全球数字鸿沟,推动互联网普及。该项目还为军事、航空等行业提供通信支持,带来广泛经济效益。